Location: Hurstbourne Priors
(51.2000°N, 1.3667°W)
Time: 20:07:29
(UTC+00:00)

Transit 4A - Pass Details

Date: 21 April 2021
Orbit: 870 x 974 km, 66.8° (Epoch: 09 May)

Event Time Altitude Azimuth Distance (km) Brightness Sun altitude
Rises 08:13:59 0° 320° (NW) 3,524 10.5 29.4°
Reaches altitude 10° 08:16:34 10° 316° (NW) 2,566 9.8 29.8°
Maximum altitude 08:22:16 52° 242° (WSW) 1,088 8.4 30.6°
Drops below altitude 10° 08:27:52 10° 167° (SSE) 2,514 10.7 31.4°
Sets 08:30:22 0° 163° (SSE) 3,445 11.4 31.8°
